Stations météo

réclame
Mon MeteoGroup
Tiree, Grande-Bretagne (3100): Température de l'air & dewpoint: 21.02.2020 01:00:00 - 27.02.2020 01:00:00 (GMT)Tiree, Grande-Bretagne (3100): Température de l'air -20cm & Température de l'air -100cm: 21.02.2020 01:00:00 - 27.02.2020 01:00:00 (GMT)Tiree, Grande-Bretagne (3100): Vitesse du vent & gusts: 21.02.2020 01:00:00 - 27.02.2020 01:00:00 (GMT)Tiree, Grande-Bretagne (3100): Direction du vent: 21.02.2020 01:00:00 - 27.02.2020 01:00:00 (GMT)Tiree, Grande-Bretagne (3100): reduced air pressure: 21.02.2020 01:00:00 - 27.02.2020 01:00:00 (GMT)Tiree, Grande-Bretagne (3100): visibility: 21.02.2020 01:00:00 - 27.02.2020 01:00:00 (GMT)Tiree, Grande-Bretagne (3100): Ensoleillement: 21.02.2020 01:00:00 - 27.02.2020 01:00:00 (GMT)Tiree, Grande-Bretagne (3100): Quantités de précipitations: 21.02.2020 01:00:00 - 27.02.2020 01:00:00 (GMT)
Date & Time tt [°C] td [°C] tt -20cm [°C] tt -100cm [°C] ff [km/h] ff [knt] fx [km/h] fx [knt] dd ppp [hPa] vv [km] sd [min] rr [mm]
27.02.2020 01:00:00 1,2 0,1 - - 11 6 - - WSW 996,1 19 0 0,0
27.02.2020 00:00:00 0,9 -0,7 - - 18 10 - - W 996,4 12 - 1,0
26.02.2020 23:00:00 1,2 0,1 - - 9 5 - - NNW 996,5 23 0 0,2
26.02.2020 22:00:00 2,0 0,7 - - 13 7 46 25 NW 996,9 21 0 0,0
26.02.2020 21:00:00 1,8 0,5 - - 18 10 46 25 W 997,3 35 0 0,8
26.02.2020 20:00:00 2,2 -0,1 - - 34 18 - - NW 998,1 8 0 0,0
26.02.2020 19:00:00 2,5 0,4 - - 18 10 46 25 W 998,1 35 0 0,0
26.02.2020 18:00:00 3,3 0,5 - - 31 17 - - W 998,8 10 0 0,2
26.02.2020 17:00:00 3,7 -0,2 - - 22 12 - - WSW 998,6 17 0 0,0
26.02.2020 16:00:00 4,8 1,0 - - 29 16 48 26 W 999,3 10 54 0,0
26.02.2020 15:00:00 4,7 1,0 - - 31 17 - - WSW 999,6 30 42 0,0
26.02.2020 14:00:00 5,0 0,2 - - 28 15 48 26 W 1000,3 30 30 0,0
26.02.2020 13:00:00 5,0 -1,2 - - 29 16 46 25 W 1000,6 45 42 0,0
26.02.2020 12:00:00 5,7 -2,3 - - 35 19 48 26 WNW 1000,6 26 54 0,0
26.02.2020 11:00:00 4,8 -1,0 - - 37 20 54 29 WNW 1000,5 10 60 0,0
26.02.2020 10:00:00 3,2 -0,7 - - 28 15 61 33 NW 1000,2 10 30 0,6
26.02.2020 09:00:00 3,2 -1,5 6,2 7,7 35 19 55 30 NW 999,8 10 18 0,0
26.02.2020 08:00:00 3,3 -2,0 - - 37 20 72 39 WNW 999,0 30 0 0,0
26.02.2020 07:00:00 3,8 0,0 - - 31 17 52 28 NW 998,3 20 0 0,0
26.02.2020 06:00:00 3,0 1,1 - - 37 20 83 45 NNW 997,8 15 0 0,6
26.02.2020 05:00:00 2,2 0,7 - - 46 25 59 32 NNW 997,1 16 0 3,2
26.02.2020 04:00:00 3,1 1,0 - - 31 17 - - NNW 996,0 13 0 0,0
26.02.2020 03:00:00 4,0 1,5 - - 28 15 - - WNW 995,1 45 0 0,0
26.02.2020 02:00:00 3,0 0,7 - - 21 11 - - WNW 994,4 50 0 0,0
26.02.2020 01:00:00 3,6 1,4 - - 24 13 - - NW 993,7 35 0 0,0
26.02.2020 00:00:00 2,9 1,2 - - 16 9 - - WNW 993,0 50 - 0,0
25.02.2020 23:00:00 2,1 0,8 - - 13 7 - - WNW 992,3 35 0 0,0
25.02.2020 22:00:00 1,5 0,2 - - 9 5 - - WNW 991,5 50 0 0,2
25.02.2020 21:00:00 2,7 1,0 - - 13 7 - - NW 991,1 3,1 0 0,2
25.02.2020 20:00:00 3,3 1,7 - - 16 9 - - W 990,7 45 0 0,0
25.02.2020 19:00:00 2,9 1,3 - - 15 8 - - NW 990,4 26 0 0,0
25.02.2020 18:00:00 1,8 0,3 - - 9 5 - - W 990,0 23 0 0,0
25.02.2020 17:00:00 3,4 1,6 - - 8 4 - - SW 989,5 45 18 0,0
25.02.2020 16:00:00 3,3 1,8 - - 9 5 - - WNW 989,9 24 0 0,8
25.02.2020 15:00:00 4,8 1,7 - - 8 4 - - W 990,1 10 42 0,0
25.02.2020 14:00:00 4,0 2,1 - - 11 6 - - NNW 990,3 50 48 0,0
25.02.2020 13:00:00 3,9 2,2 - - 16 9 - - WNW 990,8 45 6 0,2
25.02.2020 12:00:00 3,0 1,3 - - 15 8 - - WNW 991,1 5 0 0,6
25.02.2020 11:00:00 3,9 1,6 - - 15 8 - - NW 991,3 10 0 0,0
25.02.2020 10:00:00 4,2 2,1 - - 16 9 - - W 991,3 10 30 0,0
25.02.2020 09:00:00 3,2 1,8 6,2 7,7 13 7 - - W 991,6 10 0 0,0
25.02.2020 08:00:00 2,5 1,4 - - 18 10 - - WNW 992,0 27 0 0,2
25.02.2020 07:00:00 2,0 0,9 - - 13 7 - - NNW 992,6 2,7 0 1,4
25.02.2020 06:00:00 2,9 1,4 - - 9 5 - - W 993,1 35 0 0,4
25.02.2020 05:00:00 2,7 1,2 - - 18 10 - - W 993,5 35 0 0,0
25.02.2020 04:00:00 1,7 0,4 - - 11 6 - - W 993,9 40 0 0,0
25.02.2020 03:00:00 2,1 0,6 - - 11 6 46 25 W 994,7 50 0 1,0
25.02.2020 02:00:00 3,2 1,6 - - 15 8 - - W 995,3 40 0 0,2
25.02.2020 01:00:00 3,8 2,0 - - 9 5 - - WNW 996,1 18 0 0,4
25.02.2020 00:00:00 3,8 1,9 - - 21 11 - - WNW 996,5 50 - 0,0
24.02.2020 23:00:00 3,5 2,1 - - 16 9 - - WNW 997,0 50 0 0,0
24.02.2020 22:00:00 2,9 1,2 - - 11 6 - - W 997,3 50 0 0,4
24.02.2020 21:00:00 2,9 0,9 - - 8 4 - - WNW 997,8 45 0 0,0
24.02.2020 20:00:00 3,2 0,8 - - 13 7 - - NW 998,1 50 0 0,0
24.02.2020 19:00:00 3,5 1,3 - - 16 9 - - NW 998,2 50 0 0,0
24.02.2020 18:00:00 3,6 1,7 - - 24 13 - - NW 998,0 50 0 0,0
24.02.2020 17:00:00 3,7 2,2 - - 24 13 - - NNW 997,7 9 0 0,0
24.02.2020 16:00:00 4,2 2,4 - - 18 10 - - N 997,4 40 0 0,0
24.02.2020 15:00:00 4,3 2,9 - - 22 12 - - N 997,2 45 0 0,4
24.02.2020 14:00:00 3,9 2,4 - - 24 13 - - NNE 996,7 19 6 0,4
24.02.2020 13:00:00 4,1 2,5 - - 22 12 - - ENE 996,7 27 0 0,2
24.02.2020 12:00:00 3,7 2,2 - - 24 13 - - ENE 997,3 28 0 0,0
24.02.2020 11:00:00 3,4 2,4 - - 29 16 - - ENE 997,3 20 0 0,2
24.02.2020 10:00:00 2,9 1,8 - - 31 17 - - E 998,5 10 0 0,6
24.02.2020 09:00:00 2,5 1,3 6,4 7,7 34 18 46 25 E 999,9 9 0 1,2
24.02.2020 08:00:00 2,8 1,6 - - 29 16 52 28 ESE 1001,5 7 0 0,8
24.02.2020 07:00:00 3,0 1,7 - - 37 20 50 27 ESE 1003,2 11 0 1,0
24.02.2020 06:00:00 3,5 2,2 - - 31 17 - - SE 1004,8 14 0 1,0
24.02.2020 05:00:00 3,8 2,6 - - 28 15 - - S 1006,5 12 0 2,2
24.02.2020 04:00:00 3,7 2,2 - - 34 18 - - SE 1008,2 4,6 0 2,2
24.02.2020 03:00:00 5,2 3,2 - - 28 15 - - ESE 1010,3 7 0 0,0
24.02.2020 02:00:00 5,5 3,2 - - 26 14 - - SE 1012,1 15 0 0,0
24.02.2020 01:00:00 5,4 3,1 - - 22 12 - - SE 1013,7 16 0 0,0
24.02.2020 00:00:00 2,8 0,6 - - 15 8 - - ESE 1014,9 18 - 0,0
23.02.2020 23:00:00 3,1 -0,5 - - 9 5 - - ESE 1016,2 11 0 0,0
23.02.2020 22:00:00 4,7 0,7 - - 8 4 - - ESE 1016,8 10 0 0,0
23.02.2020 21:00:00 3,3 -0,3 - - 8 4 - - E 1017,3 14 0 0,0
23.02.2020 20:00:00 3,3 0,3 - - 13 7 - - NE 1017,5 13 0 0,0
23.02.2020 19:00:00 4,0 1,3 - - 13 7 - - NNW 1017,1 14 0 0,0
23.02.2020 18:00:00 5,5 2,1 - - 16 9 - - NNW 1016,2 17 0 0,0
23.02.2020 17:00:00 6,1 2,5 - - 22 12 - - N 1015,0 21 48 0,0
23.02.2020 16:00:00 7,0 3,0 - - 21 11 - - NNW 1013,5 10 54 0,0
23.02.2020 15:00:00 6,2 2,6 - - 35 19 52 28 NNW 1012,4 26 24 0,0
23.02.2020 14:00:00 7,3 3,4 - - 41 22 59 32 WNW 1011,1 17 48 0,0
23.02.2020 13:00:00 7,6 3,3 - - 42 23 65 35 W 1010,1 12 54 0,0
23.02.2020 12:00:00 7,0 1,7 - - 46 25 67 36 WNW 1009,0 12 42 0,0
23.02.2020 11:00:00 5,8 1,6 - - 41 22 67 36 WNW 1007,6 15 36 0,0
23.02.2020 10:00:00 5,0 1,4 - - 44 24 72 39 WNW 1006,3 18 12 0,2
23.02.2020 09:00:00 5,2 0,5 6,7 7,7 44 24 78 42 WNW 1005,1 15 0 0,0
23.02.2020 08:00:00 3,5 0,0 - - 50 27 67 36 WNW 1004,7 13 0 0,0
23.02.2020 07:00:00 4,5 -1,0 - - 42 23 63 34 W 1003,1 16 0 0,0
23.02.2020 06:00:00 5,1 -2,1 - - 39 21 57 31 W 1002,8 20 0 0,0
23.02.2020 05:00:00 5,0 -0,9 - - 34 18 55 30 W 1002,4 16 0 0,0
23.02.2020 04:00:00 5,2 -0,8 - - 35 19 52 28 W 1002,2 16 0 0,0
23.02.2020 03:00:00 4,1 -0,1 - - 35 19 55 30 W 1002,7 9 0 0,0
23.02.2020 02:00:00 4,8 0,1 - - 34 18 54 29 W 1003,3 15 0 0,0
23.02.2020 01:00:00 5,0 -0,4 - - 34 18 59 32 W 1003,6 14 0 0,0
23.02.2020 00:00:00 4,4 -0,5 - - 37 20 74 40 W 1004,8 11 - 0,0
22.02.2020 23:00:00 5,6 -0,8 - - 48 26 65 35 W 1004,5 14 0 0,0
22.02.2020 22:00:00 4,4 -0,3 - - 39 21 74 40 W 1004,6 13 0 0,0
22.02.2020 21:00:00 4,6 -0,5 - - 48 26 80 43 W 1004,8 14 0 0,0
22.02.2020 20:00:00 4,6 -0,8 - - 52 28 98 53 W 1004,8 16 0 0,2
22.02.2020 19:00:00 3,8 -0,4 - - 52 28 94 51 W 1004,4 13 0 0,0
22.02.2020 18:00:00 4,7 -0,2 - - 48 26 102 55 W 1003,6 12 0 0,0
22.02.2020 17:00:00 4,8 1,2 - - 46 25 87 47 W 1002,9 7 0 0,0
22.02.2020 16:00:00 4,8 0,6 - - 59 32 85 46 W 1002,2 11 30 0,0
22.02.2020 15:00:00 4,7 1,7 - - 55 30 91 49 W 1001,5 8 12 0,2
22.02.2020 14:00:00 4,9 0,5 - - 61 33 94 51 W 1001,0 10 30 0,0
22.02.2020 13:00:00 4,6 -0,4 - - 68 37 100 54 W 1000,2 8 42 0,0
22.02.2020 12:00:00 5,2 1,2 - - 57 31 109 59 W 998,9 10 36 0,0
22.02.2020 11:00:00 6,0 0,6 - - 59 32 91 49 W 997,8 9 30 0,0
22.02.2020 10:00:00 3,6 1,3 - - 54 29 91 49 W 997,2 7 6 0,2
22.02.2020 09:00:00 4,4 0,1 6,7 7,7 67 36 117 63 W 996,7 12 0 0,0
22.02.2020 08:00:00 5,1 0,0 - - 63 34 89 48 W 995,5 10 0 0,0
22.02.2020 07:00:00 3,9 0,7 - - 59 32 91 49 W 994,9 10 0 0,2
22.02.2020 06:00:00 2,4 -0,3 - - 57 31 98 53 W 994,9 2,2 0 0,0
22.02.2020 05:00:00 5,1 1,1 - - 48 26 68 37 W 993,4 12 0 0,0
22.02.2020 04:00:00 4,0 3,0 - - 50 27 94 51 W 993,8 12 0 0,2
22.02.2020 03:00:00 5,8 1,8 - - 50 27 72 39 W 993,3 13 0 0,2
22.02.2020 02:00:00 5,5 3,4 - - 48 26 100 54 W 993,3 6 0 0,2
22.02.2020 01:00:00 6,9 3,8 - - 46 25 61 33 W 991,6 12 0 0,0
22.02.2020 00:00:00 6,4 4,3 - - 52 28 80 43 W 991,2 15 - 0,2
21.02.2020 23:00:00 7,5 6,5 - - 44 24 74 40 WSW 990,2 3,5 0 1,6
21.02.2020 22:00:00 6,4 5,5 - - 41 22 78 42 WSW 991,1 6 0 2,8
21.02.2020 21:00:00 9,1 6,6 - - 44 24 68 37 SW 992,0 7 0 1,4
21.02.2020 20:00:00 9,1 6,8 - - 42 23 63 34 SW 993,0 7 0 0,0
21.02.2020 19:00:00 8,8 6,8 - - 37 20 55 30 SW 994,2 6 0 0,0
21.02.2020 18:00:00 9,0 6,3 - - 42 23 59 32 WSW 995,5 6 0 0,0
21.02.2020 17:00:00 9,1 6,3 - - 41 22 61 33 SW 995,6 6 0 0,0
21.02.2020 16:00:00 9,5 7,1 - - 41 22 70 38 WSW 996,7 6 24 0,0
21.02.2020 15:00:00 9,9 6,9 - - 50 27 70 38 WSW 996,6 7 12 0,0
21.02.2020 14:00:00 9,9 7,8 - - 46 25 67 36 WSW 996,7 8 0 0,0
21.02.2020 13:00:00 9,7 9,0 - - 42 23 74 40 WSW 996,3 6 0 0,2
21.02.2020 12:00:00 9,9 9,2 - - 50 27 76 41 WSW 996,2 4,1 0 0,2
21.02.2020 11:00:00 9,7 9,0 - - 54 29 81 44 SW 996,3 3,8 0 0,0
21.02.2020 10:00:00 9,5 8,8 - - 55 30 80 43 WSW 996,0 2,8 0 0,0
21.02.2020 09:00:00 9,3 8,5 6,4 7,7 57 31 81 44 WSW 995,9 3,1 0 0,0
21.02.2020 08:00:00 9,0 8,1 - - 55 30 85 46 SW 995,9 2,8 0 0,2
21.02.2020 07:00:00 8,7 7,8 - - 57 31 83 45 SW 996,1 3,4 0 0,6
21.02.2020 06:00:00 8,3 7,2 - - 59 32 83 45 SW 996,4 4,5 0 0,8
21.02.2020 05:00:00 7,8 6,6 - - 59 32 89 48 SW 997,9 4,6 0 1,4
21.02.2020 04:00:00 7,7 6,4 - - 57 31 81 44 SW 999,1 4,2 0 1,2
21.02.2020 03:00:00 7,4 6,0 - - 54 29 78 42 SW 1000,3 5 0 0,6
21.02.2020 02:00:00 7,4 5,3 - - 52 28 70 38 SW 1001,8 6 0 0,0
21.02.2020 01:00:00 7,4 4,4 - - 42 23 68 37 SW 1002,8 9 0 0,0

tt = Température de l'air
td = dewpoint
tt -20cm = Température de l'air -20cm
tt -100cm = Température de l'air -100cm
ff = Vitesse du vent
fx = gusts
dd = Direction du vent
ppp = reduced air pressure
vv = visibility
sd = Ensoleillement
rr = Quantités de précipitations

stations d'obs. à proximité